Hot Springs, VA

4:28 PM EST on February 22, 2017 (GMT -0500)
Ingalls

Weather History for KHSP - October, 2012

Change the Weather History Date:

Friday, October 12, 2012

  Actual Average Record
Temperature  
Mean Temperature 48 °F -  
Max Temperature 57 °F 57 °F 73 °F (2010)
Min Temperature 39 °F 43 °F 30 °F (1996)
Degree Days  
Heating Degree Days 17    
Moisture  
Dew Point 35 °F    
Average Humidity 63    
Maximum Humidity 93    
Minimum Humidity 41    
Precipitation  
Precipitation 0.00 in - - ()
Sea Level Pressure  
Sea Level Pressure 30.28 in    
Wind  
Wind Speed 13 mph (WNW)    
Max Wind Speed 21 mph    
Max Gust Speed 26 mph    
Visibility 10 miles    
Events      
Averages and records for this station are not official NWS values.
T = Trace of Precipitation, MM = Missing Value Source: NWS Daily Summary

Daily Weather History Graph

Daily Weather History Graph

Search for Another Location

Airport or City:

Trip Planner

Search our weather history database for the weather conditions in past years. The results will help you decide how hot, cold, wet, or windy it might be!

Date:

Astronomy

Oct. 12, 2012 Rise Set
Actual Time 7:25 AM EDT 6:45 PM EDT
Civil Twilight 6:59 AM EDT 7:11 PM EDT
Nautical Twilight 6:28 AM EDT 7:42 PM EDT
Astronomical Twilight 5:58 AM EDT 8:12 PM EDT
Moon 4:09 AM EDT (10/12) 4:51 PM EDT (10/12)
Length of Visible Light 12h 12m
Length of Day
11h 19m
Waning Crescent, 11% of the Moon is Illuminated
Oct 12
Waning Crescent
Oct 15
New
Oct 21
First Quarter
Oct 29
Full
Nov 6
Last Quarter

Hourly Weather History & Observations

Time (EDT) Temp. Windchill Dew Point Humidity Pressure Visibility Wind Dir Wind Speed Gust Speed Precip Events Conditions
12:19 AM 46.4 °F 40.4 °F 35.6 °F 66% 30.23 in 10.0 mi West 13.8 mph 20.7 mph N/A   Clear
12:37 AM 46.4 °F 40.4 °F 33.8 °F 62% 30.23 in 10.0 mi West 13.8 mph - N/A   Clear
12:57 AM 46.4 °F 40.1 °F 33.8 °F 62% 30.23 in 10.0 mi West 15.0 mph - N/A   Clear
1:18 AM 46.4 °F 39.8 °F 33.8 °F 62% 30.23 in 10.0 mi West 16.1 mph - N/A   Clear
1:37 AM 46.4 °F 39.8 °F 33.8 °F 62% 30.23 in 10.0 mi West 16.1 mph - N/A   Clear
1:57 AM 44.6 °F 37.8 °F 33.8 °F 66% 30.23 in 10.0 mi West 15.0 mph - N/A   Clear
2:38 AM 44.6 °F 37.4 °F 33.8 °F 66% 30.22 in 10.0 mi West 16.1 mph 21.9 mph N/A   Clear
2:57 AM 44.6 °F 37.4 °F 33.8 °F 66% 30.22 in 10.0 mi West 16.1 mph 21.9 mph N/A   Clear
3:57 AM 44.6 °F 37.2 °F 33.8 °F 66% 30.20 in 10.0 mi West 17.3 mph 23.0 mph N/A   Clear
4:17 AM 44.6 °F 36.9 °F 33.8 °F 66% 30.20 in 10.0 mi West 18.4 mph 23.0 mph N/A   Clear
4:37 AM 42.8 °F 34.3 °F 33.8 °F 70% 30.19 in 10.0 mi West 19.6 mph 26.5 mph N/A   Clear
4:58 AM 42.8 °F 35.8 °F 33.8 °F 70% 30.20 in 10.0 mi West 13.8 mph - N/A   Clear
5:17 AM 42.8 °F 34.8 °F 33.8 °F 70% 30.20 in 10.0 mi West 17.3 mph - N/A   Clear
5:37 AM 42.8 °F 35.1 °F 33.8 °F 70% 30.20 in 10.0 mi West 16.1 mph 24.2 mph N/A   Clear
5:57 AM 42.8 °F 34.8 °F 33.8 °F 70% 30.21 in 10.0 mi West 17.3 mph 23.0 mph N/A   Clear
6:20 AM 42.8 °F 35.1 °F 33.8 °F 70% 30.21 in 10.0 mi West 16.1 mph - N/A   Clear
6:58 AM 42.8 °F 34.0 °F 33.8 °F 70% 30.22 in 10.0 mi West 20.7 mph 25.3 mph N/A   Clear
7:17 AM 42.8 °F 34.8 °F 33.8 °F 70% 30.22 in 10.0 mi West 17.3 mph - N/A   Clear
7:37 AM 42.8 °F 34.5 °F 33.8 °F 70% 30.22 in 10.0 mi WNW 18.4 mph 24.2 mph N/A   Clear
7:57 AM 42.8 °F 35.4 °F 33.8 °F 70% 30.21 in 10.0 mi WNW 15.0 mph - N/A   Clear
8:17 AM 42.8 °F 38.6 °F 33.8 °F 70% 30.22 in 10.0 mi WNW 6.9 mph 17.3 mph N/A   Clear
8:59 AM 42.8 °F 37.0 °F 33.8 °F 70% 30.24 in 10.0 mi West 10.4 mph - N/A   Clear
9:17 AM 44.6 °F 38.8 °F 33.8 °F 66% 30.25 in 10.0 mi WNW 11.5 mph 17.3 mph N/A   Clear
9:37 AM 44.6 °F 38.8 °F 33.8 °F 66% 30.26 in 10.0 mi West 11.5 mph - N/A   Clear
9:58 AM 44.6 °F 38.8 °F 33.8 °F 66% 30.27 in 10.0 mi West 11.5 mph - N/A   Clear
10:21 AM 46.4 °F 40.7 °F 33.8 °F 62% 30.27 in 10.0 mi West 12.7 mph - N/A   Clear
10:37 AM 46.4 °F 41.1 °F 33.8 °F 62% 30.27 in 10.0 mi WNW 11.5 mph - N/A   Clear
10:57 AM 48.2 °F - 33.8 °F 58% 30.28 in 10.0 mi WNW 10.4 mph 16.1 mph N/A   Clear
11:17 AM 48.2 °F - 35.6 °F 62% 30.28 in 10.0 mi WNW 9.2 mph - N/A   Clear
11:38 AM 48.2 °F - 35.6 °F 62% 30.29 in 10.0 mi WNW 9.2 mph 16.1 mph N/A   Clear
12:17 PM 51.8 °F - 35.6 °F 54% 30.29 in 10.0 mi WNW 6.9 mph - N/A   Clear
12:37 PM 53.6 °F - 33.8 °F 47% 30.29 in 10.0 mi WNW 11.5 mph 17.3 mph N/A   Clear
12:57 PM 53.6 °F - 33.8 °F 47% 30.29 in 10.0 mi WNW 11.5 mph 16.1 mph N/A   Clear
1:18 PM 53.6 °F - 33.8 °F 47% 30.29 in 10.0 mi NNW 12.7 mph 18.4 mph N/A   Clear
1:39 PM 55.4 °F - 33.8 °F 44% 30.28 in 10.0 mi NW 15.0 mph 20.7 mph N/A   Clear
1:58 PM 55.4 °F - 33.8 °F 44% 30.28 in 10.0 mi NW 16.1 mph 24.2 mph N/A   Clear
2:39 PM 55.4 °F - 33.8 °F 44% 30.28 in 10.0 mi WNW 13.8 mph 20.7 mph N/A   Clear
2:57 PM 57.2 °F - 33.8 °F 41% 30.28 in 10.0 mi NW 12.7 mph 19.6 mph N/A   Clear
3:17 PM 57.2 °F - 35.6 °F 44% 30.28 in 10.0 mi NW 10.4 mph 23.0 mph N/A   Clear
3:40 PM 57.2 °F - 33.8 °F 41% 30.28 in 10.0 mi NW 13.8 mph 20.7 mph N/A   Clear
3:57 PM 57.2 °F - 35.6 °F 44% 30.29 in 10.0 mi NNW 15.0 mph 23.0 mph N/A   Clear
4:17 PM 57.2 °F - 35.6 °F 44% 30.29 in 10.0 mi NNW 12.7 mph 20.7 mph N/A   Clear
5:01 PM 55.4 °F - 35.6 °F 47% 30.30 in 7.0 mi NW 11.5 mph - N/A   Clear
5:58 PM 53.6 °F - 35.6 °F 51% 30.32 in 10.0 mi West 9.2 mph - N/A   Clear
6:57 PM 50.0 °F - 35.6 °F 58% 30.34 in 10.0 mi NW 6.9 mph - N/A   Clear
7:17 PM 48.2 °F - 35.6 °F 62% 30.35 in 10.0 mi Calm Calm - N/A   Clear
7:37 PM 48.2 °F - 35.6 °F 62% 30.35 in 10.0 mi Calm Calm - N/A   Clear
7:58 PM 46.4 °F 44.3 °F 37.4 °F 71% 30.37 in 10.0 mi NNW 4.6 mph - N/A   Clear
8:18 PM 46.4 °F - 37.4 °F 71% 30.37 in 10.0 mi Calm Calm - N/A   Clear
8:39 PM 46.4 °F 43.5 °F 37.4 °F 71% 30.38 in 10.0 mi NNW 5.8 mph - N/A   Clear
9:18 PM 44.6 °F 41.4 °F 37.4 °F 76% 30.39 in 10.0 mi NW 5.8 mph - N/A   Clear
9:58 PM 44.6 °F - 37.4 °F 76% 30.39 in 10.0 mi Calm Calm - N/A   Clear
10:18 PM 42.8 °F 41.1 °F 37.4 °F 81% 30.40 in 10.0 mi East 3.5 mph - N/A   Clear
10:44 PM 42.8 °F 41.1 °F 37.4 °F 81% 30.40 in 10.0 mi ENE 3.5 mph - N/A   Clear
10:59 PM 42.8 °F - 37.4 °F 81% 30.40 in 10.0 mi Calm Calm - N/A   Clear
11:23 PM 39.2 °F 33.6 °F 37.4 °F 93% 30.41 in 10.0 mi ENE 8.1 mph - N/A   Clear
11:39 PM 39.2 °F 32.5 °F 35.6 °F 87% 30.41 in 10.0 mi ENE 10.4 mph - N/A   Clear